Weather Roundup
Issued by NWS

Home | Current Version | Previous Version | Graphics & Text | Print | Product List | Glossary Off
Versions: 1 2 3 4 5 6 7 8 9 10 11 12 13 14 15 16 17 18 19 20 21 22 23 24 25 26 27 28 29 30 31 32 33 34 35 36 37 38 39 40 41 42 43 44 45 46 47 48 49 50

204
NZUS93 KARX 171110
HRRWXR

CURRENT HOURLY OBSERVATIONS ACROSS
MUCH OF THE UPPER MISSISSIPPI VALLEY
NATIONAL WEATHER SERVICE LA CROSSE WI
500 AM CST WED JAN 17 2018


...SOUTHEAST MINNESOTA...


CITY           SKY/WX    TMP DP  RH WIND       PRES   REMARKS
ROCHESTER      FAIR       1  -2  87 SW13      30.40F WCI -17
ROCHESTER/MAYO FAIR       3   0  84 SW7       30.43F WCI  -9
WINONA         FAIR      -6  -9  84 CALM      30.48F
AUSTIN         FAIR      -2  -8  78 SW6       30.43F WCI -14
ALBERT LEA     FAIR       1  -4  78 SW8       30.42F WCI -12
DODGE CENTER   FAIR       1  -4  78 SW13      30.39F WCI -16
PRESTON        FAIR      -1  -5  82 SW8       30.43F WCI -15
OWATONNA       FAIR       1  -4  78 S12       30.42F WCI -15
FARIBAULT      FAIR       0  -6  78 S5        30.41F WCI -10
$$

...ELSEWHERE IN MINNESOTA...


CITY           SKY/WX    TMP DP  RH WIND       PRES   REMARKS
MINNEAPOLIS    FAIR       1  -4  79 S5        30.41F WCI  -9
INTNL FALLS    FAIR      11  -2  56 SW14      30.02F WCI  -5
DULUTH         FAIR       2  -3  80 W17       30.17F WCI -18
RED WING       FAIR      -8 -15  71 E3        30.44F
REDWOOD FALLS  CLOUDY     2  -3  80 S7        30.36F WCI -11
MANKATO        FAIR      -1  -5  82 S7        30.42F WCI -14
WORTHINGTON    CLOUDY     5  -1  76 SW20G26   30.35F WCI -15
FAIRMONT       CLOUDY     5  -1  76 SW15      30.42F WCI -13
$$

...SOUTHWEST WISCONSIN...


CITY           SKY/WX    TMP DP  RH WIND       PRES   REMARKS
LA CROSSE      FAIR      -4  -8  83 S3        30.50F
PRAIRIE DU CHI FAIR      -4  -9  79 CALM      30.55F
BOSCOBEL       FAIR      -3  -8  79 SW6       30.54F WCI -15
LONE ROCK      FAIR      -4  -8  83 W5        30.52F WCI -15
PLATTEVILLE    FAIR      -4  -7  88 SW5       30.51F WCI -15
FORT MC COY    FAIR      -5  -8  87 CALM      30.49R
CAMP DOUGLAS   FAIR      -7 -11  82 CALM      30.45S
MAUSTON-NEW LI FAIR     N/A N/A N/A W3        30.45S
VIROQUA        FAIR      -5  -8  89 SW7       30.43F WCI -19
WIS DELLS      FAIR      -1  -5  84 SW6       30.46S WCI -13
$$

...ELSEWHERE IN WISCONSIN...


CITY           SKY/WX    TMP DP  RH WIND       PRES   REMARKS
MILWAUKEE      FAIR       9   4  80 W8        30.47S WCI  -3
MADISON        FAIR       2  -2  83 CALM      30.48F
GREEN BAY      MOCLDY     4  -2  76 SW10      30.41S WCI -11
EAU CLAIRE     FAIR      -3  -6  87 S3        30.42F
BLACK RVR FLS  FAIR      -4  -8  79 S3        30.45F
MEDFORD        FAIR      -2  -6  85 SW8       30.32F WCI -17
WAUSAU         MOCLDY    -1  -5  82 CALM      30.34F
WIS RAPIDS     MOCLDY    -2  -8  76 W7        30.43S WCI -15
MARSHFIELD     CLOUDY    -2  -6  83 W8        30.37F WCI -17
RICE LAKE      FAIR      -1  -5  84 CALM      30.37F
$$

...NORTHEAST IOWA...


CITY           SKY/WX    TMP DP  RH WIND       PRES   REMARKS
WATERLOO       FAIR      -3  -7  82 S5        30.55F WCI -13
DUBUQUE        FAIR      -3  -8  79 W6        30.51F WCI -15
DECORAH        FAIR       0  -4  85 VRB5      30.46F WCI -10
MASON CITY     CLOUDY     0  -5  79 SW10      30.48F WCI -16
CHARLES CITY   FAIR      -4  -8  84 SW8       30.50F WCI -19
OELWEIN        FAIR      -6  -6 100 SW5       30.53S WCI -17
$$

...ELSEWHERE IN IOWA...


CITY           SKY/WX    TMP DP  RH WIND       PRES   REMARKS
DES MOINES     CLOUDY    -2  -6  83 S6        30.56F WCI -14
IOWA CITY      FAIR      -1  -8  72 CALM      30.62F
FORT DODGE     CLOUDY    -3  -7  82 S6        30.50F WCI -15
MARSHALLTOWN   CLOUDY    -4  -7  87 W3        30.55F
CEDAR RAPIDS   FAIR      -3  -9  75 SW3       30.56S
$$

...NORTHERN ILLINOIS...


CITY           SKY/WX    TMP DP  RH WIND       PRES   REMARKS
CHICAGO-OHARE  FAIR       6   2  83 W6        30.51F WCI  -4
CHICAGO-MIDWAY FAIR       8   4  83 W5        30.53S WCI   0
MOLINE         FAIR      -1  -5  82 W5        30.60S WCI -11
ROCKFORD       FAIR      -1  -5  82 SW5       30.55S WCI -11
PEORIA         FAIR      -1  -5  82 W3        30.62S
$$

NOTE: "FAIR" INDICATES FEW OR NO CLOUDS BELOW 12,000 FEET WITH NO
SIGNIFICANT WEATHER AND/OR OBSTRUCTIONS TO VISIBILITY. WIND
SPEEDS ARE IN MILES-PER-HOUR.




USA.gov is the U.S. government's official web portal to all federal, state and local government web resources and services.